Portada
METAR-TAF:

METAR-TAF

Aeroports :

Esmeraldas, Equador

latitud: 00-58-43N, longitud: 079-37-36W, altitud: 10 m

Observació

L'informe es va fer fa 15 hores i 28 minuts, a les 21:00 UTC
Vent 11 kt del Oest
Temperatura 28°C
Humitat 79%
Pressió 1008 hPa
Visibilitat 10 km o més
Escasses núvols a una alçada de 3000 ft
Núvols disperses a una alçada de 10000 ft

METAR: SETN 302100Z 28011KT 9999 FEW030 SCT100 28/24 Q1008 A2977

Hora: 07:28 (12:28 UTC)


TAF: manca

Observacions i pronòstics meteorològics de més de 4000 aeroports (METAR i TAF).

Les estacions disponibles són els punts grocs i vermells al mapa.

Posi el ratolí al punt desitjat per veure el nom de l'estació.

Feu clic per veure les observacions i els pronòstics meteorològics.

Per canviar el mapa: feu clic els botons verds amb una creu de color negre per apropar; al botó verd amb un guió per allunyar la imatge; o en les fletxes verdes per a mapes adjacents.


METAR-TAF: